User: anonymous   Login
Location: Mactaquac Provincial Park
(45.9573°N, 66.8897°W)
Time: 19:23:45
(UTC-03:00)
Language:

Cosmos 1766 - Orbit

View from above orbital plane
View from above orbital plane
View from above satellite
View from above satellite

Ground track
Ground track

The orbit data is extracted from the following two-line orbital elements,

1 16881U 86055A   17291.01546779  .00001101  00000-0  65223-4 0  9992
2 16881  82.5017 263.5080 0018581  42.5782 317.6884 15.10251314699974
Epoch (UTC): 18 October 2017 00:22:16
Eccentricity: 0.0018581
inclination: 82.5017°
perigee height: 522 km
apogee height: 548 km
right ascension of ascending node: 263.5080°
argument of perigee: 42.5782°
revolutions per day: 15.10251314
mean anomaly at epoch: 317.6884°
orbit number at epoch: 69997

The dashed part of the orbit path shows where the satellite is in the earth's shadow,  

DLR